Regional Weather Roundup
Issued by NWS

Home | Current Version | Previous Version | Text Only | Print | Product List | Glossary On
Versions: 1 2 3 4 5 6 7 8 9 10 11 12 13 14 15 16 17 18 19 20 21 22 23 24 25 26 27 28 29 30 31 32 33 34 35 36 37 38 39 40 41 42 43 44 45 46 47 48 49 50
000
ASUS43 KIND 300309
RWRIN

WEATHER ROUNDUP FOR INDIANA
NATIONAL WEATHER SERVICE INDIANAPOLIS IN
1100 PM EDT WED OCT 29 2014

NOTE: "FAIR" INDICATES FEW OR NO CLOUDS BELOW 12,000 FEET WITH NO
SIGNIFICANT WEATHER AND/OR OBSTRUCTIONS TO VISIBILITY.

* - STATION DOES NOT REPORT WEATHER SUCH AS PRECIPITATION OR FOG.

+ - STATION NOT QUALITY CONTROLLED BY THE NATIONAL WEATHER SERVICE.
    USE DATA WITH CAUTION...ESPECIALLY DEWPOINT AND RELATIVE
    HUMIDITY OBSERVATIONS.

INZ001>003-010>013-019-020-300400-
NORTHWEST INDIANA

CITY           SKY/WX    TMP DP  RH WIND       PRES   REMARKS
GARY /AIRPORT/ CLOUDY    47  34  59 W3        30.15S
KNOX *+        CLOUDY    44  34  68 W5        30.13S
LA PORTE +     CLOUDY    45  37  72 CALM      30.14S
MICHIGAN CITY+ CLOUDY    45  32  61 CALM      30.13S
MONTICELLO +   CLOUDY    44  36  73 CALM      30.15R
RENSSELAER +   CLOUDY    43  36  75 W3        30.15S
VALPARAISO     CLOUDY    44  34  67 W7        30.14S

$$

LMZ046-743>745-300400-
SOUTHERN LAKE MICHIGAN

STATION/POSITION TIME  TEMP WIND        PRES
                       AIR  DIR/SP/G
                 (UTC) (F)  (DEG/KT/KT) (MB)
MICHIGAN CITY    0300   48  320/  7/ 10   N/A

$$

INZ004-005-014>016-021>024-300400-
NORTH CENTRAL INDIANA

CITY           SKY/WX    TMP DP  RH WIND       PRES   REMARKS
GOSHEN         CLOUDY    43  39  86 SW3       30.12S
LOGANSPORT +   CLOUDY    43  32  65 W3        30.15S
PERU/GRISSOM   CLOUDY    43  38  83 W5        30.14S
ROCHESTER +    CLOUDY    45  36  70 W5        30.14S
SOUTH BEND     CLOUDY    45  37  73 CALM      30.14R
WARSAW +       CLOUDY    43  34  70 CALM      30.13R

$$

INZ006>009-017-018-025>027-300400-
NORTHEAST INDIANA

CITY           SKY/WX    TMP DP  RH WIND       PRES   REMARKS
ANGOLA *+      CLOUDY    43  37  81 W5        30.11S
AUBURN +       CLOUDY    43  36  75 W3        30.13R
FORT WAYNE     CLOUDY    43  35  73 W5        30.14R
HUNTINGTON +   CLOUDY   N/A N/A N/A W3        30.13S

$$

INZ028-029-035-036-043>045-051>053-300400-
WEST CENTRAL INDIANA

CITY           SKY/WX    TMP DP  RH WIND       PRES   REMARKS
GREENCASTLE +  CLOUDY    45  34  65 N3        30.16S
LAFAYETTE      CLOUDY    43  37  79 CALM      30.16S
TERRE HAUTE    MOCLDY    44  34  67 CALM      30.17S

$$

INZ030>032-037>040-046>048-054>057-064-065-300400-
CENTRAL INDIANA

CITY           SKY/WX    TMP DP  RH WIND       PRES   REMARKS
CP ATTERBURY + CLOUDY    45  34  65 NW6       30.16S
FRANKFORT +    CLOUDY    44  36  74 SW3       30.16S
INDIANAPOLIS   CLOUDY    44  32  62 NW7       30.15S
-EAGLE CREEK   CLOUDY    45  33  63 NW6       30.15S
KOKOMO *+      CLOUDY    43  34  70 W5        30.15S
MARION +       CLOUDY    42  34  73 W3        30.15R
MT COMFORT *+  CLOUDY    45  28  53 NW5       30.15S
SHELBYVILLE    CLOUDY    46  34  62 NW7       30.14S
ZIONSVILLE +   CLOUDY    43  33  66 CALM      30.15S

$$

INZ033-034-041-042-049-050-058-059-300400-
EAST CENTRAL INDIANA

CITY           SKY/WX    TMP DP  RH WIND       PRES   REMARKS
MUNCIE         CLOUDY    44  35  70 W6        30.13S

$$

INZ060-061-067>069-081>083-085>088-300400-
SOUTHWEST INDIANA

CITY           SKY/WX    TMP DP  RH WIND       PRES   REMARKS
EVANSVILLE     CLEAR     45  38  76 N3        30.16S
HUNTINGBURG *+ CLEAR     45  34  65 N6        30.16R
WASHINGTON +   CLEAR     41  37  86 N6        30.16R

$$

INZ062-063-066-070>080-084-089>092-300400-
SOUTH CENTRAL AND SOUTHEAST INDIANA

CITY           SKY/WX    TMP DP  RH WIND       PRES   REMARKS
BLOOMINGTON    CLOUDY    46  35  65 N7        30.16R

$$




USA.gov is the U.S. government's official web portal to all federal, state and local government web resources and services.